{"data":{"norad_id":81552,"epoch":"2026-05-23T04:55:04.729440Z","epoch_age_seconds":240825,"freshness":"STALE","line1":"1 81552U          26143.20491585  .00000669  00000+0  15122-2 0  9994","line2":"2 81552  99.0684  52.7151 0256932 350.7952   8.8506 13.18447020600528","mean_motion":13.1844702,"eccentricity":0.0256932,"inclination_deg":99.0684,"raan_deg":52.7151,"arg_perigee_deg":350.7952,"mean_anomaly_deg":8.8506,"bstar":0.0015122,"rev_number":60052,"period_min":109.21940572174,"perigee_km":996.19104204835,"apogee_km":1385.1241486426,"semimajor_km":7568.7945953455,"source":"CELESTRAK","updated_at":"2026-05-25T13:38:11.077702Z"}}